Regional Weather Roundup
Issued by NWS

Home | Current Version | Previous Version | Text Only | Print | Product List | Glossary On
Versions: 1 2 3 4 5 6 7 8 9 10 11 12 13 14 15 16 17 18 19 20 21 22 23 24 25 26 27
000
ASUS42 KFFC 281703
RWRGA
WEATHER ROUNDUP FOR GEORGIA
NATIONAL WEATHER SERVICE PEACHTREE CITY GA
100 PM EDT SUN AUG 28 2016

NOTE: "FAIR" INDICATES FEW OR NO CLOUDS BELOW 12,000 FEET WITH NO
SIGNIFICANT WEATHER AND/OR OBSTRUCTIONS TO VISIBILITY.

* = USE WITH CAUTION. THE STATIONS MARKED WITH AN ASTERISK MAY NOT
REPORT WEATHER SUCH AS PRECIPITATION, FOG, OR THUNDER AND ARE NOT
QUALITY CONTROLLED BY NWS.

THE REMARK "TC" DENOTES TEMPERATURE READING IN DEGREES CELSIUS.

GAZ001>058-281800-
NORTH GEORGIA

CITY           SKY/WX    TMP DP  RH WIND       PRES   REMARKS
ATLANTA        PTSUNNY   87  71  58 NE13G18   30.17F HX  93
ATHENS         MOSUNNY   87  75  67 VRB5      30.17F HX  96
CHAMBLEE       MOSUNNY   87  69  54 NE6       30.18F HX  91
PEACHTREE CITY MOSUNNY   88  71  57 VRB5      30.16F HX  94
ROME           PTSUNNY   86  71  60 E3        30.16F HX  91
WEST ATLANTA   PTSUNNY   88  70  55 VRB7      30.16F HX  93
GAINESVILLE    MOSUNNY   85  70  60 E12       30.22F
CARTERSVILLE   MOSUNNY   90  69  50 VRB7      30.17F HX  94


CITY           SKY/WX    TMP DP  RH WIND       PRES   REMARKS
DALTON*        SUNNY     88  70  55 SE6       30.17F HX  92
LAWRENCEVILLE* PTSUNNY   84  73  70 E7        30.20S HX  91
MARIETTA       PTSUNNY   86  70  58 N8        30.17F HX  90
KENNESAW*      MOSUNNY   86  72  62 E9G16     30.13F HX  92
CANTON*        SUNNY    N/A N/A N/A E9        30.21F
BLAIRSVILLE*     N/A    N/A N/A N/A MISG      30.24F
$$

GAZ059>098-102>109-281800-
CENTRAL GEORGIA

CITY           SKY/WX    TMP DP  RH WIND       PRES   REMARKS
AUGUSTA-BUSH   PTSUNNY   91  71  51 NE9       30.12F HX  97
AUGUSTA-DANIEL MOSUNNY   91  71  51 NE6       30.14F HX  97
COLUMBUS       MOSUNNY   87  68  52 SE13      30.10F HX  90
MACON          MOSUNNY   90  68  48 NE12      30.11F HX  94
ROBINS AFB     MOSUNNY   90  70  50 VRB6      30.09F HX  95


CITY           SKY/WX    TMP DP  RH WIND       PRES   REMARKS
LAGRANGE*      MOSUNNY   90  74  59 E5        30.14S HX  99
MILLEDGEVILLE* MOSUNNY   90  72  55 E7        30.13F HX  96
$$

GAZ099>101-110>166-281800-
SOUTH GEORGIA

CITY           SKY/WX    TMP DP  RH WIND       PRES   REMARKS
SAVANNAH       PTSUNNY   91  70  49 E12G21    30.09F HX  96
VALDOSTA       PTSUNNY   89  73  59 VRB7      30.05F HX  97
ALMA           MOSUNNY   90  71  53 VRB7      30.08F HX  96
ST SIMONS      MOSUNNY   87  75  67 NE15      30.07F HX  96
FT STEWART     SUNNY     91  68  46 VRB3      30.06F HX  95
ALBANY         PTSUNNY   91  67  44 E10       30.09F HX  94
HUNTER AFB     SUNNY     89  73  58 E13       30.06F HX  97
MOODY AFB      MOSUNNY   89  68  49 NE10      30.05F HX  92
BRUNSWICK      CLOUDY    88  75  66 E17       30.08F HX  97


CITY           SKY/WX    TMP DP  RH WIND       PRES   REMARKS
BAINBRIDGE*    MOSUNNY   91  72  52 E9        30.05F HX  98
MOULTRIE*      MOSUNNY   90  70  51 NE8       30.08F HX  95
VIDALIA*       PTSUNNY   91  75  59 E9        30.10F HX 102
WAYCROSS*        N/A     94  74  53 E9        30.07F HX 104
DOUGLAS*       PTSUNNY   88  66  48 E9        30.09F HX  90
$$




USA.gov is the U.S. government's official web portal to all federal, state and local government web resources and services.